Greybull, WY

10:46 PM MDT on August 16, 2017 (GMT -0600)
South Big Horn County

Weather History for KGEY - November, 2013

Change the Weather History Date:

Monday, November 25, 2013

  Actual Average Record
Temperature  
Mean Temperature 22 °F 25 °F  
Max Temperature 35 °F 37 °F 51 °F (2005)
Min Temperature 9 °F 13 °F -7 °F (2010)
Degree Days  
Heating Degree Days 43 40  
Month to date heating degree days 822 824  
Since 1 July heating degree days 1631 1646  
Cooling Degree Days 0 0  
Month to date cooling degree days 0 0  
Year to date cooling degree days 1005 669  
Moisture  
Dew Point 14 °F    
Average Humidity 72    
Maximum Humidity 92    
Minimum Humidity 51    
Precipitation  
Precipitation 0.00 in 0.01 in 0.39 in (2014)
Month to date precipitation T 0.25  
Year to date precipitation 4.85 7.18  
Sea Level Pressure  
Sea Level Pressure 30.47 in    
Wind  
Wind Speed 2 mph (SE)    
Max Wind Speed 7 mph    
Max Gust Speed 8 mph    
Visibility 10 miles    
Events      
T = Trace of Precipitation, MM = Missing Value Source: NWS Daily Summary

Daily Weather History Graph

Daily Weather History Graph

Search for Another Location

Airport or City:

Trip Planner

Search our weather history database for the weather conditions in past years. The results will help you decide how hot, cold, wet, or windy it might be!

Date:

Astronomy

Nov. 25, 2013 Rise Set
Actual Time 7:21 AM MST 4:36 PM MST
Civil Twilight 6:49 AM MST 5:08 PM MST
Nautical Twilight 6:13 AM MST 5:44 PM MST
Astronomical Twilight 5:38 AM MST 6:19 PM MST
Moon No Moon Rise 12:31 PM MST (11/25)
Length of Visible Light 10h 19m
Length of Day
9h 14m
Waning Gibbous, 50% of the Moon is Illuminated
Nov 25
Waning Gibbous
Nov 25
Last Quarter
Dec 2
New
Dec 9
First Quarter
Dec 17
Full

Hourly Weather History & Observations

Time (MST) Temp. Windchill Dew Point Humidity Pressure Visibility Wind Dir Wind Speed Gust Speed Precip Events Conditions
12:53 AM 10.9 °F - 7.0 °F 84% 30.37 in 10.0 mi Calm Calm - N/A   Clear
1:53 AM 12.0 °F 5.9 °F 8.1 °F 84% 30.38 in 10.0 mi WSW 3.5 mph - N/A   Mostly Cloudy
2:53 AM 10.9 °F - 8.1 °F 88% 30.38 in 10.0 mi Calm Calm - N/A   Mostly Cloudy
3:53 AM 10.0 °F 3.6 °F 7.0 °F 87% 30.39 in 10.0 mi NW 3.5 mph - N/A   Partly Cloudy
4:53 AM 10.0 °F - 7.0 °F 87% 30.40 in 10.0 mi Calm Calm - N/A   Scattered Clouds
5:53 AM 12.9 °F - 9.0 °F 84% 30.41 in 10.0 mi Calm Calm - N/A   Overcast
6:53 AM 14.0 °F - 10.0 °F 84% 30.43 in 10.0 mi Calm Calm - N/A   Overcast
7:53 AM 16.0 °F 10.4 °F 12.0 °F 84% 30.45 in 10.0 mi NW 3.5 mph - N/A   Overcast
8:53 AM 17.1 °F - 14.0 °F 88% 30.48 in 10.0 mi Calm Calm - N/A   Overcast
9:53 AM 19.9 °F - 15.1 °F 81% 30.50 in 10.0 mi Calm Calm - N/A   Overcast
10:53 AM 24.1 °F 19.7 °F 17.1 °F 75% 30.49 in 10.0 mi North 3.5 mph - N/A   Overcast
11:53 AM 28.9 °F - 17.1 °F 61% 30.48 in 10.0 mi Calm Calm - N/A   Mostly Cloudy
12:53 PM 32.0 °F - 17.1 °F 54% 30.46 in 10.0 mi Calm Calm - N/A   Clear
1:53 PM 33.1 °F - 17.1 °F 52% 30.44 in 10.0 mi Calm Calm - N/A   Clear
2:53 PM 34.0 °F - 18.0 °F 52% 30.44 in 10.0 mi Calm Calm - N/A   Clear
3:53 PM 33.1 °F 30.0 °F 17.1 °F 52% 30.46 in 10.0 mi South 3.5 mph - N/A   Clear
4:53 PM 30.0 °F 26.5 °F 19.0 °F 64% 30.47 in 10.0 mi East 3.5 mph - N/A   Clear
5:53 PM 26.1 °F 21.9 °F 19.0 °F 75% 30.49 in 10.0 mi SSE 3.5 mph - N/A   Clear
6:53 PM 23.0 °F 15.8 °F 18.0 °F 81% 30.51 in 10.0 mi ESE 5.8 mph - N/A   Clear
7:53 PM 21.0 °F 13.4 °F 16.0 °F 81% 30.52 in 10.0 mi SE 5.8 mph - N/A   Clear
8:53 PM 19.0 °F - 16.0 °F 88% 30.55 in 10.0 mi Calm Calm - N/A   Clear
9:53 PM 16.0 °F 8.8 °F 14.0 °F 92% 30.56 in 10.0 mi ESE 4.6 mph - N/A   Clear
10:53 PM 14.0 °F 8.2 °F 10.9 °F 88% 30.56 in 10.0 mi East 3.5 mph - N/A   Clear
11:53 PM 12.9 °F 6.9 °F 10.9 °F 92% 30.56 in 10.0 mi SSE 3.5 mph - N/A   Clear